Vorticity
7 3 5 5 -6 0 12 7 5 13 9 6 3 5 6 10 9 3 7 13 11 2 6 -1 5 13 14 10 11 -7 9 -11 11 13 6 17 19 32 33 30 4 10 30
9 7 10 6 10 11 10 8 7 10 15 15 9 7 9 34 8 8 -2 7 11 13 7 -4 4 5 2 5 20 -0 -6 10 16 11 7 20 16 26 43 35 30 27 24
4 5 13 11 9 7 7 10 6 6 4 12 12 9 9 13 3 19 0 6 3 -2 8 5 6 7 3 -3 17 2 9 2 17 9 9 22 12 16 31 33 26 25 21
9 10 8 7 5 5 6 4 8 5 9 7 10 10 7 8 3 9 9 6 6 14 12 1 12 23 1 1 3 5 5 -0 16 8 11 19 8 13 16 28 20 20 22
11 10 9 8 7 10 11 7 5 11 4 4 7 7 7 7 8 7 8 8 10 12 15 0 3 7 15 4 18 20 8 9 24 7 10 17 11 11 9 17 19 19 21
9 10 10 9 8 7 5 10 4 0 3 4 7 7 5 8 8 7 8 5 8 10 11 13 9 1 11 13 3 9 14 -0 15 7 3 18 13 2 21 16 14 13 23
12 12 8 10 11 7 10 7 4 4 4 6 5 5 7 9 10 10 7 8 7 8 5 12 14 8 7 1 2 15 10 21 7 6 1 21 14 1 15 25 23 12 17
5 7 6 6 7 9 7 7 8 5 5 4 4 3 5 8 7 9 10 10 5 8 7 7 8 8 5 4 7 18 11 14 8 7 3 18 14 4 9 17 17 15 11
3 6 3 7 5 7 6 6 5 6 5 4 4 3 4 5 12 11 7 9 9 11 8 5 5 3 2 11 20 13 12 10 10 4 7 15 14 7 9 11 10 9 11
5 1 1 7 10 7 6 6 6 6 5 5 4 4 1 4 9 11 9 14 12 14 10 7 6 10 5 16 16 12 24 11 11 3 8 6 14 9 2 11 14 8 7
6 4 8 5 7 7 7 6 6 4 3 5 6 4 2 6 10 10 12 8 10 20 6 10 2 3 3 4 15 30 4 11 15 3 7 4 12 13 6 9 10 16 6
5 7 10 11 5 4 6 4 4 2 4 5 7 9 8 8 8 9 9 9 14 12 6 9 10 7 1 1 20 23 15 7 15 8 6 7 7 13 15 9 8 16 17
4 4 2 4 6 5 3 2 6 6 7 9 9 9 8 11 11 13 12 14 12 15 12 9 14 14 7 7 15 7 26 5 10 6 7 4 8 6 15 17 7 5 17
-1 8 8 -2 9 16 8 5 8 11 11 10 8 8 8 9 11 14 11 13 12 16 14 14 12 14 15 8 2 17 23 13 9 36 9 4 6 9 9 12 14 10 4
2 2 2 -1 21 5 19 22 13 9 5 4 6 7 10 10 10 13 10 12 14 19 15 14 20 10 13 12 7 19 17 -1 15 33 -1 6 7 7 8 18 11 20 10
10 9 5 1 7 9 11 15 11 8 8 9 9 11 12 13 13 14 5 19 16 4 2 1 2 9 16 10 9 4 12 -24 -15 10 6 4 5 11 10 9 20 7 23
-5 21 9 -3 4 20 -5 20 9 2 5 13 13 10 10 15 11 9 8 7 15 17 8 10 16 19 13 14 11 11 9 10 40 -15 39 0 3 7 12 10 10 18 6
62 3 11 -11 -15 25 43 7 -1 3 15 14 8 8 13 16 15 12 6 9 10 16 15 17 12 15 10 6 10 7 8 10 8 44 -18 49 6 -4 6 10 12 9 14
78 102 33 16 41 5 34 2 14 20 11 6 9 9 14 18 4 9 10 1 18 14 13 12 11 9 10 11 9 9 13 11 10 18 1 16 56 5 3 1 7 23 9
30 -27 17 35 33 26 13 20 14 6 7 12 7 10 12 11 10 -0 6 15 15 7 10 11 10 11 13 11 8 8 11 16 14 20 -1 12 4 39 15 11 2 4 9
30 17 31 26 29 18 15 17 12 22 6 9 5 12 13 5 12 14 2 9 9 7 7 11 10 8 10 12 11 10 13 7 11 13 13 11 -7 28 84 10 9 -14 4
19 21 35 25 15 1 3 5 3 2 9 6 10 14 7 7 5 7 3 9 8 5 7 8 9 8 8 8 11 11 11 14 15 10 15 17 -2 -3 13 48 26 11 8
80 19 7 6 8 9 6 8 9 10 16 23 17 11 2 4 8 7 7 5 5 7 8 10 8 6 6 9 9 13 10 10 12 11 14 10 18 10 -7 22 58 12 3
14 15 16 11 5 7 7 5 -5 -4 3 6 33 17 -0 10 10 7 3 6 5 6 11 9 8 11 14 13 11 10 13 12 10 9 12 18 16 9 6 0 22 5 45
10 7 5 4 7 12 10 15 14 21 12 18 11 23 17 8 5 4 8 4 6 11 11 9 13 13 11 11 13 13 9 10 10 11 9 11 16 17 5 6 8 -9 21
22 18 21 20 16 14 15 9 7 4 16 24 24 7 7 2 1 3 9 4 8 9 12 11 8 4 6 13 10 11 15 16 11 11 8 8 12 16 15 11 3 12 17
Height
5909 5909 5909 5910 5910 5911 5910 5910 5909 5907 5905 5903 5901 5899 5897 5894 5892 5891 5887 5884 5881 5876 5872 5867 5862 5858 5847 5851 5844 5840 5835 5829 5819 5809 5797 5787 5773 5762 5754 5750 5749 5748 5754
5905 5906 5906 5906 5907 5906 5907 5906 5906 5905 5903 5901 5900 5897 5895 5892 5891 5888 5885 5882 5878 5873 5870 5866 5861 5856 5852 5848 5846 5838 5835 5828 5818 5809 5797 5789 5776 5761 5751 5746 5745 5747 5753
5901 5902 5903 5903 5903 5903 5903 5903 5902 5901 5900 5898 5897 5895 5892 5890 5888 5886 5883 5879 5876 5872 5868 5864 5861 5856 5852 5849 5844 5839 5833 5826 5818 5811 5799 5791 5781 5767 5757 5751 5749 5751 5755
5899 5899 5899 5899 5899 5900 5900 5899 5899 5898 5897 5895 5893 5892 5889 5887 5884 5881 5878 5875 5872 5869 5866 5863 5860 5855 5851 5847 5843 5839 5833 5826 5820 5813 5803 5795 5787 5775 5768 5762 5757 5757 5760
5895 5895 5895 5896 5896 5896 5894 5895 5895 5895 5894 5892 5890 5888 5885 5883 5880 5878 5875 5871 5868 5865 5862 5859 5856 5853 5849 5846 5842 5837 5833 5827 5821 5815 5807 5800 5793 5786 5779 5775 5769 5767 5769
5892 5892 5892 5892 5892 5892 5891 5891 5888 5889 5889 5889 5887 5885 5882 5880 5877 5875 5871 5868 5865 5862 5858 5855 5852 5849 5846 5842 5841 5836 5832 5826 5821 5816 5811 5804 5798 5793 5788 5785 5782 5778 5781
5889 5888 5888 5888 5888 5888 5888 5887 5887 5886 5885 5884 5883 5881 5879 5877 5874 5871 5869 5866 5862 5859 5855 5851 5848 5845 5843 5840 5838 5835 5831 5827 5822 5817 5814 5808 5804 5800 5797 5793 5792 5789 5792
5882 5883 5883 5883 5882 5883 5883 5883 5882 5881 5880 5879 5878 5877 5875 5872 5870 5867 5864 5862 5858 5856 5853 5848 5845 5842 5839 5837 5835 5833 5830 5826 5823 5818 5816 5812 5809 5805 5804 5804 5800 5801 5800
5874 5875 5875 5876 5876 5877 5877 5877 5877 5876 5875 5874 5873 5871 5870 5868 5865 5863 5860 5857 5854 5852 5849 5846 5842 5838 5835 5834 5832 5829 5828 5825 5823 5820 5817 5816 5813 5810 5810 5809 5809 5810 5810
5866 5867 5868 5869 5869 5870 5870 5870 5870 5869 5869 5868 5867 5865 5864 5862 5859 5857 5854 5852 5850 5846 5845 5842 5839 5836 5833 5830 5830 5828 5826 5824 5822 5820 5819 5817 5815 5815 5814 5814 5814 5815 5816
5858 5860 5860 5861 5862 5862 5862 5863 5862 5862 5861 5860 5859 5858 5857 5855 5853 5851 5849 5846 5844 5843 5839 5837 5834 5833 5831 5828 5827 5826 5822 5822 5821 5820 5820 5818 5817 5816 5817 5817 5817 5818 5819
5847 5849 5851 5851 5852 5853 5853 5853 5853 5853 5852 5851 5850 5849 5849 5848 5846 5845 5842 5839 5837 5835 5833 5831 5830 5829 5827 5826 5825 5822 5823 5819 5819 5818 5818 5817 5815 5815 5817 5817 5817 5819 5819
5836 5838 5841 5842 5842 5843 5843 5843 5844 5844 5843 5843 5842 5841 5840 5839 5839 5837 5835 5832 5829 5828 5826 5825 5824 5823 5822 5822 5822 5820 5817 5815 5816 5816 5817 5815 5815 5814 5814 5816 5815 5816 5819
5823 5824 5827 5830 5832 5832 5832 5833 5833 5834 5834 5834 5833 5832 5831 5830 5829 5827 5826 5825 5823 5820 5820 5818 5817 5817 5816 5816 5816 5816 5813 5811 5811 5812 5813 5813 5813 5812 5812 5812 5813 5814 5816
5808 5808 5810 5814 5819 5822 5822 5823 5823 5824 5824 5824 5823 5822 5822 5822 5821 5820 5818 5816 5815 5814 5813 5812 5811 5810 5809 5810 5810 5811 5810 5808 5806 5807 5808 5810 5810 5810 5810 5810 5811 5811 5812
5791 5793 5795 5797 5802 5807 5810 5812 5813 5814 5814 5814 5814 5814 5815 5814 5813 5812 5811 5810 5808 5807 5807 5805 5805 5804 5803 5802 5803 5805 5805 5800 5802 5801 5802 5803 5806 5808 5807 5806 5809 5809 5809
5776 5777 5778 5781 5787 5791 5797 5800 5801 5801 5803 5804 5803 5803 5805 5807 5806 5805 5804 5803 5802 5802 5801 5800 5797 5795 5796 5795 5796 5796 5797 5797 5794 5798 5796 5795 5798 5802 5803 5803 5803 5805 5804
5756 5757 5763 5767 5774 5776 5780 5786 5789 5791 5792 5793 5795 5796 5798 5798 5797 5797 5798 5796 5795 5794 5793 5793 5791 5788 5788 5788 5788 5788 5789 5790 5790 5791 5791 5791 5791 5793 5796 5797 5798 5799 5800
5744 5744 5747 5752 5759 5765 5766 5772 5779 5781 5782 5783 5785 5786 5788 5790 5790 5790 5790 5789 5789 5785 5784 5784 5784 5783 5782 5780 5780 5780 5780 5782 5784 5784 5784 5786 5787 5786 5787 5791 5793 5794 5795
5740 5738 5743 5744 5748 5754 5758 5763 5766 5769 5772 5775 5775 5776 5779 5782 5782 5781 5780 5780 5780 5779 5776 5776 5776 5775 5775 5774 5772 5772 5773 5773 5775 5776 5776 5777 5779 5778 5780 5781 5786 5788 5789
5728 5730 5734 5739 5743 5747 5751 5752 5757 5760 5763 5765 5766 5768 5769 5771 5771 5772 5773 5772 5770 5771 5770 5768 5767 5766 5767 5766 5764 5763 5765 5765 5765 5766 5769 5770 5771 5771 5770 5773 5775 5779 5783
5713 5719 5724 5729 5732 5736 5741 5744 5747 5750 5752 5755 5756 5758 5761 5762 5761 5763 5763 5763 5762 5761 5762 5761 5759 5757 5757 5756 5755 5754 5756 5758 5758 5758 5760 5763 5760 5760 5763 5764 5767 5771 5774
5708 5712 5716 5722 5725 5728 5732 5736 5739 5741 5744 5745 5746 5748 5750 5752 5752 5753 5752 5754 5752 5752 5752 5752 5750 5748 5746 5745 5743 5744 5743 5747 5747 5748 5749 5750 5752 5751 5754 5757 5759 5760 5764
5703 5707 5711 5715 5719 5720 5724 5727 5728 5731 5732 5733 5736 5739 5741 5742 5743 5743 5744 5744 5743 5741 5740 5740 5739 5738 5736 5734 5732 5730 5730 5732 5735 5736 5738 5740 5741 5742 5746 5749 5751 5752 5753
5697 5701 5705 5707 5709 5712 5714 5717 5718 5720 5722 5725 5727 5729 5732 5733 5735 5734 5733 5733 5732 5730 5730 5728 5726 5724 5723 5721 5719 5719 5717 5716 5721 5724 5728 5729 5732 5734 5735 5738 5741 5743 5746
5690 5693 5696 5700 5702 5704 5705 5706 5710 5711 5713 5716 5718 5720 5723 5725 5726 5725 5723 5722 5720 5719 5717 5715 5713 5710 5708 5706 5704 5703 5703 5704 5704 5707 5712 5717 5719 5722 5725 5728 5732 5737 5739